Location: Borovka
(49.7741°N, 14.5280°E)
Time: 10:02:42
(UTC+00:00)

LilacSat-2 - Pass Details

Date: 18 March 2026
Orbit: 412 x 424 km, 97.5° (Epoch: 20 April)

Event Time Altitude Azimuth Distance (km) Brightness Sun altitude
Rises 18:18:51 0° 176° (S) 2,390 ? -11.6°
Reaches altitude 10° 18:20:53 10° 181° (S) 1,529 ? -11.9°
Maximum altitude 18:24:05 52° 259° (W) 545 ? -12.4°
Drops below altitude 10° 18:27:20 10° 338° (NNW) 1,542 ? -12.9°
Sets 18:29:23 0° 343° (NNW) 2,413 ? -13.3°
